Tracking 29892 objects as of 21-Nov-2024
HD Live streaming from Space Station
objects crossing your sky now

OPS 4682 DEB

Track OPS 4682 DEB now!
10-day predictions


NORAD ID: 38458
Int'l Code: 1965-027FP
Perigee: 1,274.9 km
Apogee: 1,318.0 km
Inclination: 90.2 °
Period: 111.4 minutes
Semi major axis: 7667 km
RCS: 0.0084 m2 (small)
Launch date: April 3, 1965
Source: United States (US)
Launch site: AIR FORCE WESTERN TEST RANGE (AFWTR)

Note: This is SATELLITE DEBRIS
Your satellite tracking list
Your tracking list is empty




NASA's NSSDC Master Catalog

Two Line Element Set (TLE):
1 38458U 65027FP  24326.06604159  .00000427  00000-0  15351-2 0  9996
2 38458  90.2426 354.1426 0028144 341.1156  18.8916 12.93084495 36623
Source of the keplerian elements: AFSPC